GFSSGP_925_temp_021.txt.gz
Temp
25 25 24 24 23 21 22 25 27 28 29 30 30 29 29 29 28 26 26 27 27 27 25 24 24 24 23 23 22 21 20 20 20 19 19 18 17 17 17 17 17 17 17 17 17 17 17 18 17
25 25 24 22 22 22 22 25 27 28 30 28 29 28 30 29 27 25 25 27 27 27 26 25 25 24 23 23 22 21 21 20 19 19 18 18 18 17 17 17 17 17 17 17 17 17 17 17 18
26 25 23 22 20 21 23 27 27 29 30 29 29 28 28 29 27 24 28 27 26 27 26 26 25 24 23 22 22 21 20 20 18 18 18 17 17 17 17 17 17 17 17 18 18 18 17 17 18
24 23 21 22 22 23 25 27 27 28 30 29 28 28 28 28 26 28 28 28 27 27 26 25 24 24 23 23 22 21 20 20 18 18 18 17 17 17 17 17 17 17 17 18 18 18 17 17 17
24 21 21 21 23 24 26 27 27 29 30 29 28 28 27 28 29 29 28 27 27 27 26 25 24 24 23 23 22 22 21 21 19 18 18 17 17 17 17 17 17 17 17 17 17 18 17 17 17
22 20 21 22 24 26 27 27 28 29 30 29 28 26 26 28 28 28 28 27 27 27 26 25 24 23 23 23 22 21 21 20 19 19 19 18 18 17 17 17 17 17 17 17 17 17 17 17 17
22 20 21 23 25 25 27 29 29 29 28 29 27 26 26 25 28 28 28 27 27 26 26 24 24 23 23 22 21 21 21 20 20 19 19 18 18 17 16 16 16 16 16 16 16 17 17 17 16
22 21 23 22 24 25 27 29 28 28 29 28 27 27 26 24 26 27 27 26 26 26 25 24 23 23 22 22 21 21 21 20 20 19 18 18 17 17 15 15 15 15 16 16 16 17 16 16 16
23 21 21 22 24 25 27 28 29 31 30 30 28 26 27 28 26 25 23 23 24 24 24 23 23 22 22 22 21 21 20 19 19 18 18 17 17 16 16 15 15 15 15 16 16 16 16 16 16
22 20 22 26 25 25 25 26 26 28 28 29 29 27 26 27 24 22 22 21 23 22 23 23 22 22 22 21 21 20 19 18 18 17 17 17 17 16 16 15 15 15 15 15 16 16 16 16 16
22 24 25 26 26 25 25 27 29 28 27 28 28 28 24 24 23 23 23 23 24 24 23 22 22 22 22 21 20 19 18 18 18 18 17 17 16 16 16 16 15 15 15 16 16 16 16 15 15
23 23 26 26 27 26 26 28 28 29 28 30 27 27 24 23 22 22 23 23 23 23 23 23 22 22 21 20 19 18 18 18 18 18 17 16 16 16 16 16 16 16 16 16 16 16 16 15 15
23 24 26 26 26 26 27 27 27 28 29 30 27 24 24 24 23 24 24 24 24 22 22 22 22 22 21 19 19 19 18 18 18 17 17 16 16 16 16 16 16 16 15 15 15 16 15 15 15
23 23 24 25 25 26 26 27 27 28 29 27 26 24 24 23 23 22 22 23 23 22 21 21 21 21 20 19 19 19 19 18 18 17 17 16 16 16 16 16 16 16 15 15 15 15 15 15 16
23 23 24 24 25 26 27 26 27 28 27 26 25 24 24 24 23 22 24 22 22 21 21 21 21 20 20 19 19 19 19 18 18 18 17 16 16 16 16 16 16 16 15 15 15 15 15 15 15
23 22 21 25 26 27 26 25 27 28 26 26 26 25 24 23 23 24 23 22 20 21 21 21 20 19 19 19 19 19 19 18 18 17 17 16 16 16 16 16 16 16 15 15 15 15 15 15 15
20 21 22 24 25 25 25 25 26 26 26 26 27 25 24 25 22 23 22 21 20 21 20 20 20 20 19 19 19 19 19 18 18 17 17 17 16 15 15 15 16 15 15 15 15 15 15 15 15
20 20 21 23 25 24 24 23 26 26 26 27 26 24 24 25 23 20 21 20 21 21 21 20 20 20 19 19 19 19 18 18 18 17 17 16 16 15 15 15 15 15 15 15 14 15 15 15 15
23 21 21 23 25 25 24 24 25 26 26 26 25 23 23 22 20 18 18 20 20 20 20 20 20 19 19 19 19 18 18 18 18 17 17 16 16 15 15 15 15 15 15 15 14 14 15 15 16
22 21 22 24 25 24 24 24 25 25 26 25 25 25 22 19 17 17 17 18 18 19 20 20 20 19 19 19 19 18 18 17 17 17 16 16 16 15 15 15 15 15 15 14 14 15 15 14 15
22 21 22 23 24 25 23 24 24 26 26 25 24 24 22 20 17 17 17 17 18 19 20 20 19 19 19 19 18 18 18 17 16 16 16 16 15 15 15 15 15 15 15 15 15 15 16 15 15
21 23 24 24 22 21 23 20 23 24 25 26 26 24 22 18 17 18 17 15 17 19 20 20 19 19 19 19 18 18 16 15 15 16 16 16 16 16 15 16 15 15 16 15 16 16 16 17 15
23 24 23 23 22 22 23 21 22 23 25 24 25 25 20 17 18 17 16 17 19 19 19 19 19 19 19 19 18 18 17 17 16 16 16 15 15 15 15 16 16 16 16 16 16 16 16 17 17
24 24 22 22 21 20 23 21 22 23 25 26 27 23 18 17 16 15 17 18 18 19 19 19 19 19 19 19 18 18 17 17 16 16 15 15 15 15 16 16 16 16 17 16 16 17 17 18 18
23 19 18 18 18 19 23 21 24 24 24 25 26 21 18 17 16 17 17 15 16 18 19 19 19 19 18 18 18 18 18 17 16 16 15 15 15 15 16 16 16 16 17 17 17 17 17 18 18
22 22 18 18 18 21 22 22 24 25 26 25 24 20 18 16 17 17 17 16 16 18 18 19 19 19 18 19 18 18 18 17 16 16 15 15 15 15 16 16 17 17 17 17 17 17 17 17 17
22 21 23 21 22 21 21 23 25 27 25 23 20 19 18 17 17 17 16 16 17 18 19 19 19 19 19 19 18 18 18 17 17 16 16 16 16 15 16 16 16 17 17 17 17 17 17 17 17
22 23 22 19 20 21 21 23 24 27 25 22 20 18 18 16 16 17 16 16 17 19 20 19 19 20 19 19 19 18 18 17 17 17 16 16 16 16 16 16 16 17 16 17 17 16 16 16 15
21 22 21 21 20 19 20 21 21 25 23 22 20 19 18 17 17 17 16 17 18 19 19 19 19 19 19 19 19 18 18 17 17 17 16 16 16 17 16 16 16 16 16 16 16 15 14 15 15
24 22 22 22 20 21 20 22 25 23 22 23 21 19 17 17 18 17 16 16 16 18 18 19 19 19 19 19 19 18 18 17 17 17 16 16 16 16 16 16 16 16 15 15 15 15 14 14 14

GFSSGP_925_temp_024.txt.gz
Temp
24 24 23 23 22 20 22 23 26 27 29 29 28 27 26 27 25 24 26 26 27 27 25 24 24 24 23 23 22 22 21 21 20 19 19 18 17 17 17 17 17 17 17 17 17 17 17 17 18
24 23 23 21 21 21 22 24 26 27 28 28 28 28 28 29 26 26 25 26 27 27 25 25 24 24 24 23 23 22 21 20 19 19 18 18 17 17 17 17 17 17 17 17 17 17 17 17 17
24 24 23 21 19 21 23 25 27 27 27 28 29 28 28 29 26 25 27 27 27 27 26 26 25 24 24 23 22 22 21 20 19 18 18 17 17 17 17 17 17 17 17 18 18 18 18 17 17
24 23 21 22 21 22 23 25 26 26 27 27 28 29 28 29 27 29 28 27 27 27 26 26 25 24 24 23 22 22 21 20 19 18 18 17 17 17 18 17 17 17 17 18 18 18 18 17 17
23 20 21 21 22 23 24 25 26 26 27 29 27 29 27 28 29 28 29 28 28 26 26 26 25 25 24 23 22 21 21 21 20 18 18 17 17 17 17 17 17 17 17 17 18 18 18 17 17
21 20 21 21 23 24 25 25 27 27 27 28 28 27 27 27 27 28 28 28 28 27 26 26 25 24 24 23 22 21 21 20 20 19 18 18 18 17 17 17 17 17 17 17 17 17 17 17 17
21 20 21 22 23 25 25 26 27 28 27 28 27 28 26 25 28 28 28 28 27 27 26 25 25 24 23 23 22 21 21 20 20 20 19 18 18 18 17 16 16 16 16 16 16 16 17 17 17
21 21 22 22 24 25 27 28 27 28 28 27 27 28 27 25 28 27 26 26 26 25 26 25 24 24 23 22 21 21 20 20 20 19 19 18 18 17 17 16 15 15 16 16 17 17 16 16 16
21 20 20 22 22 24 26 27 27 28 28 28 28 27 26 27 25 25 24 24 24 24 25 24 24 23 22 21 21 20 20 20 20 19 18 18 17 17 17 16 16 15 15 15 16 16 16 16 16
21 18 21 24 23 24 25 25 25 27 26 27 27 27 27 25 23 22 21 21 23 23 24 24 23 22 22 21 21 20 20 20 18 18 18 17 17 17 16 16 16 15 15 15 15 15 16 16 16
21 22 24 24 25 25 24 24 27 26 25 27 26 28 25 22 21 22 22 22 24 25 24 23 22 22 21 21 20 20 20 19 18 18 18 17 17 16 16 16 16 15 15 15 15 16 16 16 16
21 22 25 25 26 25 25 25 25 26 26 27 27 26 25 21 20 21 21 22 23 23 24 23 22 21 21 21 20 21 19 19 18 18 18 17 16 16 16 16 15 15 15 15 15 15 16 15 15
21 23 24 23 23 24 25 24 25 25 27 27 26 25 23 21 22 23 23 23 23 23 23 22 21 21 21 20 20 20 19 18 18 17 17 16 16 16 16 16 16 16 15 15 15 15 15 15 15
21 22 23 23 23 24 24 25 25 26 27 26 26 24 23 21 22 22 22 23 23 22 22 22 21 21 20 20 20 19 18 18 18 17 17 16 16 16 16 16 16 15 15 15 15 15 15 15 15
22 22 22 23 24 23 25 23 24 27 26 25 25 25 23 22 22 21 23 23 22 21 21 22 21 21 20 20 19 19 18 18 18 17 17 16 16 16 16 15 16 16 15 15 15 15 15 15 14
23 21 21 24 25 24 24 23 25 26 24 24 24 24 23 22 21 23 24 23 22 21 21 21 21 20 20 20 19 18 18 18 18 17 17 16 16 15 15 15 16 16 15 15 15 15 14 14 14
19 21 21 22 25 24 23 23 25 25 24 24 25 24 24 23 20 23 23 22 20 21 21 20 20 20 20 19 18 18 18 18 17 17 17 17 16 15 15 15 15 15 15 15 15 14 14 14 14
19 20 19 22 24 23 21 21 24 24 23 23 23 23 22 22 22 22 21 20 20 21 21 20 20 20 19 18 18 18 18 18 18 17 17 17 16 15 15 15 15 15 15 14 14 14 14 14 15
22 21 21 23 24 23 22 21 23 25 23 22 23 24 23 21 20 19 18 19 19 20 20 20 19 19 18 18 18 18 18 18 17 17 16 16 16 15 15 15 15 15 15 15 14 14 14 14 14
21 21 21 23 23 23 22 21 22 23 23 23 24 24 22 21 19 16 15 16 17 18 19 19 19 19 18 18 18 18 18 17 17 16 16 16 16 15 15 15 15 15 14 14 13 14 13 14 14
21 21 22 23 22 23 22 22 23 24 24 23 23 22 21 20 18 15 15 15 16 17 18 19 19 19 18 18 18 18 17 16 16 16 16 16 16 15 15 14 14 14 14 14 14 14 15 14 14
20 22 23 22 21 19 21 18 22 23 23 23 24 23 22 21 15 15 14 14 16 17 19 19 19 19 18 18 18 18 17 16 16 16 15 15 15 15 15 15 15 15 14 14 15 15 15 16 14
22 23 22 22 20 20 21 19 21 22 23 23 24 24 22 17 15 15 15 15 17 18 19 19 19 18 18 18 18 17 17 16 16 16 15 15 15 15 15 15 15 15 15 15 15 15 15 16 16
23 22 20 19 18 17 20 20 21 21 24 24 25 25 19 15 14 14 15 16 17 18 18 18 18 18 18 18 18 18 17 16 16 15 15 15 15 15 15 15 15 15 15 15 15 16 15 16 16
21 19 17 17 17 17 21 19 22 22 22 24 24 23 17 15 15 15 16 15 15 16 17 18 18 18 18 18 18 17 17 16 16 15 15 14 15 15 15 15 16 16 16 16 16 16 16 17 17
21 19 17 18 17 19 21 19 21 23 25 23 23 22 16 14 15 16 16 15 15 16 17 18 18 18 18 18 17 17 17 17 16 15 15 15 15 15 15 15 16 16 16 16 16 16 16 17 17
19 20 19 19 19 18 19 21 24 23 24 23 21 17 15 14 14 15 15 15 15 16 18 18 18 18 18 18 18 17 17 17 16 16 15 15 15 15 15 15 16 16 16 16 16 16 16 16 16
22 21 20 18 19 19 20 22 23 25 26 24 20 18 15 14 15 16 15 15 16 18 19 18 19 19 18 18 18 17 18 17 16 16 16 15 15 15 15 16 16 16 16 16 16 16 16 16 16
18 20 19 19 16 17 19 20 20 25 25 23 20 17 15 15 16 16 15 15 17 18 18 18 18 18 18 18 18 17 18 17 16 16 16 15 15 15 15 16 16 16 16 16 16 15 15 15 15
23 20 19 21 19 18 19 20 23 22 23 22 21 18 15 15 16 16 15 14 15 17 17 18 18 18 18 18 18 17 17 17 16 16 16 16 15 15 16 16 16 16 15 15 14 14 14 14 13

GFSSGP_925_temp_030.txt.gz
Temp
24 23 25 28 31 31 33 34 35 35 35 35 35 35 35 36 35 34 31 31 30 29 26 25 26 26 25 25 24 24 23 23 22 21 21 20 20 19 19 19 19 19 18 17 17 17 17 17 18
24 24 27 32 32 33 34 35 34 35 35 35 35 35 35 35 37 36 34 30 30 28 26 24 26 26 26 25 24 24 23 23 22 21 21 20 19 18 18 18 18 18 18 18 18 18 18 17 17
25 26 32 32 33 34 35 35 35 35 35 35 35 35 35 35 35 36 33 30 29 28 26 24 27 26 26 25 25 24 23 23 22 21 20 19 19 18 18 17 17 17 18 18 18 18 18 18 18
27 29 32 31 33 34 34 35 35 35 35 35 35 35 35 35 34 34 31 29 29 28 27 25 27 26 25 25 24 24 23 22 22 21 20 19 18 18 18 17 17 17 18 18 18 18 18 18 18
28 32 32 32 33 34 35 35 35 35 35 35 35 35 35 34 32 31 30 29 30 29 28 26 27 26 25 25 24 24 23 22 21 21 20 19 18 18 18 18 17 17 18 17 18 18 18 18 18
31 32 31 33 34 34 35 35 35 35 36 35 34 35 35 33 33 32 31 30 30 29 28 27 26 26 25 25 24 24 23 22 21 21 20 19 19 18 18 17 17 17 17 17 17 17 18 17 17
30 32 32 33 34 33 34 36 35 35 35 35 35 34 36 36 32 31 31 30 29 29 27 26 24 24 25 24 24 23 23 22 21 21 20 19 19 18 18 18 17 17 17 17 17 17 17 17 17
31 32 31 33 33 33 34 34 35 35 35 35 34 34 34 36 31 31 31 31 30 29 28 26 25 24 22 22 22 23 22 22 21 20 20 19 18 18 18 18 18 17 16 16 16 16 16 16 16
31 30 31 33 33 34 34 34 34 34 33 34 35 34 35 33 32 32 32 31 31 30 28 27 26 25 24 24 22 21 21 21 20 19 19 19 19 20 20 19 18 18 16 16 16 16 16 16 16
30 31 31 34 34 34 35 33 34 32 33 33 35 35 34 32 33 33 33 33 32 30 29 28 26 25 25 25 24 21 22 21 21 21 21 20 20 20 20 19 18 17 17 16 16 15 16 16 18
30 31 33 33 34 34 33 33 35 33 32 33 34 34 34 34 33 33 33 33 33 32 30 28 25 24 24 25 24 23 23 22 22 21 20 20 20 20 20 20 19 18 18 18 19 19 18 19 19
30 31 32 33 34 33 32 33 33 33 33 34 34 34 34 34 34 34 34 34 33 32 31 29 26 23 23 24 23 23 23 22 22 21 19 19 19 19 19 20 19 19 19 19 18 19 19 18 18
30 31 32 32 32 32 32 31 32 32 33 33 34 33 34 34 34 33 33 33 32 31 31 29 25 23 22 22 23 23 22 22 22 21 20 19 20 20 19 19 18 18 18 19 18 19 18 18 18
31 31 31 31 32 31 31 31 32 33 32 33 33 33 34 34 34 33 33 32 31 31 30 28 25 22 21 21 22 21 21 22 21 21 20 19 19 19 19 19 18 18 18 19 17 19 19 19 19
31 29 31 30 31 31 31 30 31 33 33 33 33 33 33 33 33 33 32 32 31 30 28 27 23 22 21 21 20 21 22 21 21 21 19 18 18 18 18 18 18 17 17 17 16 17 17 18 18
29 29 29 31 31 31 30 29 33 34 34 33 32 33 33 33 33 32 32 32 31 29 27 24 23 22 21 21 21 22 22 21 21 20 20 18 18 17 17 17 16 16 16 16 16 17 18 18 18
28 28 29 30 32 31 30 30 33 34 33 32 32 33 33 33 33 33 32 31 29 28 26 22 23 22 21 20 21 21 20 20 21 20 20 19 18 18 17 17 16 16 16 16 16 18 18 17 16
27 28 29 30 32 30 30 30 32 33 32 32 32 32 32 32 33 33 31 29 27 24 22 22 22 22 21 20 21 21 21 21 20 20 20 19 18 18 17 16 16 16 16 16 16 17 16 17 15
29 29 29 30 31 30 30 31 32 33 32 32 32 32 32 32 33 32 27 25 24 22 22 22 21 20 21 21 22 22 22 22 21 20 19 18 18 17 16 16 16 15 15 16 17 16 15 15 15
27 28 29 30 31 30 29 30 31 32 32 32 32 32 32 32 33 32 25 23 23 22 21 21 20 20 21 21 22 22 22 22 21 20 19 18 18 17 16 16 15 16 16 17 16 15 16 15 15
26 26 27 28 30 30 29 28 29 31 32 32 32 32 32 33 32 31 25 24 23 22 21 21 20 20 21 21 20 20 20 20 20 20 20 18 17 17 16 15 16 15 17 17 16 15 16 16 16
26 27 27 27 27 27 29 28 29 31 31 31 32 32 33 33 33 29 26 24 23 22 21 21 20 20 20 20 21 21 22 23 22 20 20 18 17 17 16 15 15 16 16 15 15 16 16 16 18
27 28 27 27 26 27 27 27 28 30 29 30 32 32 33 33 31 28 26 24 23 22 22 21 20 20 19 20 21 20 21 21 20 20 18 18 17 16 16 17 17 17 15 15 16 16 16 16 16
28 27 27 27 27 25 26 27 27 29 30 31 33 33 34 30 28 27 25 23 23 23 22 21 20 20 19 20 19 20 19 20 20 20 19 18 17 16 17 17 16 16 16 16 17 17 17 17 17
27 26 25 24 25 25 27 27 27 29 31 31 32 33 32 29 28 26 25 25 23 23 22 21 21 20 20 20 19 19 19 19 19 19 18 18 16 16 17 17 17 17 17 17 17 17 17 16 17
26 26 27 24 25 27 28 26 29 30 31 31 32 33 31 29 28 26 26 25 24 23 22 22 21 21 20 20 20 19 19 20 20 19 19 19 17 17 17 17 17 17 17 17 17 16 16 16 17
26 27 29 28 28 28 29 29 29 29 30 32 32 32 30 29 27 26 26 25 24 23 22 22 22 21 21 20 20 19 19 19 19 18 18 17 17 18 17 17 17 18 18 17 17 17 17 17 17
28 28 26 28 25 25 28 29 28 30 31 31 31 32 31 28 27 27 26 25 24 23 22 22 22 21 21 20 20 20 19 19 19 18 18 17 17 18 18 17 18 18 18 17 17 17 17 18 17
27 27 27 28 28 27 27 29 30 30 32 32 33 32 30 27 27 27 26 25 24 23 23 22 22 21 21 21 20 20 20 19 19 18 18 17 17 18 18 18 18 18 18 17 17 17 18 17 17
28 27 27 26 25 28 29 29 29 31 31 33 33 31 29 28 28 27 27 25 25 24 23 22 22 22 21 21 20 20 20 19 19 18 18 17 17 18 19 19 18 18 18 18 18 18 18 17 17

GFSSGP_925_temp_033.txt.gz
Temp
25 25 25 29 32 34 35 37 39 37 37 38 38 37 38 38 37 36 35 35 34 32 25 25 26 25 25 25 24 24 23 23 22 22 21 20 20 20 19 19 18 18 18 18 18 18 18 18 18
26 27 29 33 32 34 37 39 37 38 38 38 38 38 37 37 39 39 37 34 34 31 26 24 26 26 25 25 24 24 23 23 22 22 21 20 20 19 18 18 18 18 18 18 18 18 18 18 18
27 29 32 34 34 36 36 36 38 38 38 38 38 38 38 37 38 37 35 34 33 31 28 25 27 26 26 25 25 24 23 23 22 22 21 20 20 19 18 18 18 18 18 18 18 18 18 18 18
29 31 33 33 35 38 38 38 38 37 38 38 38 37 38 37 37 36 34 34 33 32 29 26 26 26 26 25 25 25 24 23 22 22 21 20 19 19 18 18 18 18 18 18 18 18 18 18 18
30 34 33 34 35 37 38 38 38 37 38 38 38 37 37 36 35 34 34 33 33 33 31 27 26 26 26 26 25 25 24 23 23 22 21 20 19 19 18 18 18 17 18 18 18 18 18 18 18
31 34 33 34 36 38 38 38 38 38 38 38 37 37 37 36 36 35 34 33 33 33 31 30 27 25 26 26 25 25 24 23 23 22 21 20 20 19 18 18 18 18 18 17 17 17 18 17 17
32 34 33 35 35 36 37 38 38 37 38 37 38 36 38 38 35 34 34 33 33 33 31 30 25 25 24 25 24 24 24 23 23 22 21 20 20 19 18 18 18 18 17 17 17 17 17 17 17
33 33 33 35 35 35 38 37 38 37 37 38 37 35 36 37 35 35 35 35 34 33 32 30 28 25 22 22 22 23 24 23 22 22 21 20 19 19 19 19 18 18 17 17 17 16 16 16 16
34 32 32 34 34 36 38 37 38 37 36 37 37 37 37 36 36 35 36 36 35 34 33 31 30 28 25 24 23 21 22 22 22 21 20 20 19 21 21 20 19 19 18 17 16 16 16 16 16
31 32 33 35 36 36 37 37 37 36 36 36 36 37 37 36 36 36 36 36 36 35 34 32 30 29 27 26 25 22 22 21 21 21 21 20 21 22 22 21 19 19 19 18 17 17 17 16 18
32 31 34 35 36 37 36 37 37 36 35 36 36 36 37 37 36 36 36 36 36 36 35 33 30 29 28 27 27 24 24 23 23 22 22 22 22 22 22 22 21 19 18 18 19 18 18 19 20
32 33 34 34 35 36 36 36 36 36 36 37 36 36 36 36 36 36 36 36 36 36 36 34 31 28 27 27 27 26 25 25 24 24 22 21 21 21 21 22 22 20 19 20 19 19 20 20 20
33 33 34 35 35 35 35 35 35 35 36 36 36 36 35 36 36 36 35 35 35 35 35 34 31 27 25 25 27 26 26 25 25 24 23 21 22 22 22 22 20 20 20 20 19 19 19 20 19
34 34 34 34 34 35 34 34 35 35 36 36 36 35 36 36 36 36 35 35 34 34 34 32 31 27 25 24 25 25 25 25 24 24 23 22 21 21 21 21 20 19 20 19 18 18 18 19 20
33 32 33 34 34 34 34 33 33 35 36 35 35 36 36 36 36 36 35 34 33 33 33 31 31 27 24 23 24 24 24 24 24 23 23 22 20 20 20 21 21 20 18 17 17 17 18 19 20
31 32 31 33 33 34 33 31 33 35 35 35 36 36 36 35 36 35 34 34 33 32 32 30 30 27 24 23 23 23 24 23 24 23 23 21 20 19 20 19 19 19 17 17 16 17 18 18 18
30 29 30 31 34 33 33 32 34 35 35 34 35 35 35 35 35 34 34 34 33 32 31 29 28 26 24 23 23 23 24 23 23 23 23 22 21 20 19 19 18 17 16 16 16 16 17 17 18
28 29 30 30 33 33 33 33 34 35 34 34 35 35 34 35 35 35 34 34 31 30 29 27 25 25 23 23 22 23 23 23 23 23 23 22 21 20 20 19 17 16 16 16 16 16 18 19 17
30 30 31 32 33 32 32 33 34 34 34 34 35 35 34 34 35 35 34 30 28 27 25 24 24 24 23 23 23 24 24 23 23 23 22 21 20 20 19 18 16 16 16 16 16 17 17 17 16
29 29 30 32 33 33 33 32 33 34 33 34 34 35 34 34 35 35 33 28 27 25 24 23 23 22 22 23 24 25 24 24 24 24 23 21 20 19 18 17 16 16 16 16 16 17 16 16 16
29 29 29 30 31 32 32 31 32 33 34 34 34 34 34 34 34 35 32 28 26 25 24 23 22 21 22 24 24 23 23 23 23 23 22 21 19 18 18 17 16 16 16 18 17 17 16 17 16
28 30 30 30 30 29 32 30 31 32 33 33 34 34 34 34 35 35 32 28 26 25 23 22 22 21 23 22 23 23 24 25 24 23 23 21 20 19 18 17 17 17 18 18 17 16 16 16 17
29 31 30 30 29 29 30 29 30 32 32 33 33 34 34 34 35 35 31 28 26 24 23 22 22 22 21 22 23 22 23 24 23 23 21 20 18 18 18 17 18 17 16 17 16 16 16 17 17
30 30 30 30 29 28 29 29 30 31 32 33 33 34 35 35 35 33 30 27 26 24 23 22 22 22 21 22 22 21 22 22 22 22 21 19 17 17 18 18 17 17 17 16 17 17 17 17 17
30 29 27 27 28 28 30 29 30 32 32 33 33 34 35 35 33 31 28 27 26 25 24 23 22 22 21 21 21 21 21 21 21 21 19 19 18 17 18 18 17 17 17 17 17 17 17 17 17
28 29 28 26 27 29 31 29 31 33 33 33 34 34 35 33 32 30 29 28 26 25 24 24 22 22 22 22 22 21 21 21 21 20 19 18 19 18 18 19 18 18 18 19 18 17 17 17 17
28 29 30 29 31 31 32 33 33 33 33 32 33 34 34 32 31 30 29 28 26 25 24 24 23 23 22 22 22 21 21 21 21 20 18 19 18 18 19 19 18 18 18 18 17 17 18 17 17
28 31 28 30 27 28 31 31 32 32 33 33 33 34 33 32 30 30 29 28 26 25 24 24 23 23 23 22 22 22 21 21 21 19 18 19 19 20 19 18 18 19 20 19 18 18 18 17 17
28 29 29 29 30 29 29 31 34 33 33 33 34 34 33 31 30 30 29 27 26 25 25 24 24 23 23 23 22 22 21 21 21 19 19 18 19 20 19 19 19 19 18 18 17 18 18 17 17
29 29 29 29 28 30 30 31 33 33 33 34 35 34 34 31 31 30 29 28 27 26 25 24 24 24 23 23 23 22 21 21 20 20 19 18 19 20 20 20 20 20 19 18 18 18 19 19 19